Jacksonville, IL

7:21 AM CST on December 12, 2017 (GMT -0600)
Jacksonville Municipal

Weather History for KIJX - September, 2012

Change the Weather History Date:

Thursday, September 6, 2012

  Actual Average (KSPI) Record (KSPI)
Temperature  
Mean Temperature 78 °F -  
Max Temperature 89 °F 82 °F 100 °F (1954)
Min Temperature 68 °F 59 °F 40 °F (1962)
Cooling Degree Days 14    
Growing Degree Days 28 (Base 50)    
Moisture  
Dew Point 65 °F    
Average Humidity 69    
Maximum Humidity 97    
Minimum Humidity 32    
Precipitation  
Precipitation 0.00 in - - ()
Sea Level Pressure  
Sea Level Pressure 29.93 in    
Wind  
Wind Speed 4 mph (WNW)    
Max Wind Speed 12 mph    
Max Gust Speed -    
Visibility 9 miles    
Events      
Averages and records for this station are not official NWS values.
T = Trace of Precipitation, MM = Missing Value Source: NWS Daily Summary

Daily Weather History Graph

Daily Weather History Graph

Search for Another Location

Airport or City:

Trip Planner

Search our weather history database for the weather conditions in past years. The results will help you decide how hot, cold, wet, or windy it might be!

Date:

Astronomy

Sep. 06, 2012 Rise Set
Actual Time 6:34 AM CDT 7:23 PM CDT
Civil Twilight 6:06 AM CDT 7:50 PM CDT
Nautical Twilight 5:34 AM CDT 8:23 PM CDT
Astronomical Twilight 5:00 AM CDT 8:56 PM CDT
Moon 10:35 PM CDT (9/6) 12:32 PM CDT (9/6)
Length of Visible Light 13h 44m
Length of Day
12h 49m
Waning Gibbous, 67% of the Moon is Illuminated
Sep 6
Waning Gibbous
Sep 8
Last Quarter
Sep 15
New
Sep 22
First Quarter
Sep 29
Full

Hourly Weather History & Observations

Time (CDT) Temp. Heat Index Dew Point Humidity Pressure Visibility Wind Dir Wind Speed Gust Speed Precip Events Conditions
12:15 AM 72.7 °F - 69.4 °F 90% 29.88 in 10.0 mi South 4.6 mph - N/A   Clear
12:35 AM 73.0 °F - 69.6 °F 89% 29.88 in 10.0 mi South 4.6 mph - N/A   Clear
12:55 AM 73.4 °F - 69.8 °F 88% 29.88 in 10.0 mi South 4.6 mph - N/A   Clear
1:15 AM 73.4 °F - 69.8 °F 88% 29.89 in 10.0 mi South 5.8 mph - N/A   Clear
1:55 AM 73.8 °F - 70.0 °F 88% 29.89 in 10.0 mi South 4.6 mph - N/A   Clear
2:15 AM 73.8 °F - 70.2 °F 88% 29.89 in 10.0 mi South 3.5 mph - N/A   Clear
2:35 AM 72.9 °F - 70.0 °F 91% 29.89 in 10.0 mi South 3.5 mph - N/A   Clear
2:55 AM 72.9 °F - 70.2 °F 91% 29.90 in 10.0 mi South 4.6 mph - N/A   Clear
3:35 AM 72.9 °F - 70.7 °F 93% 29.89 in 7.0 mi SSW 4.6 mph - N/A   Clear
3:55 AM 72.7 °F - 70.7 °F 93% 29.90 in 7.0 mi WNW 5.8 mph - N/A   Clear
4:15 AM 71.2 °F - 69.4 °F 94% 29.90 in 5.0 mi Calm Calm - N/A   Scattered Clouds
4:35 AM 70.7 °F - 69.3 °F 95% 29.90 in 5.0 mi WNW 4.6 mph - N/A   Clear
4:55 AM 69.8 °F - 68.5 °F 96% 29.91 in 4.0 mi Calm Calm - N/A   Clear
5:15 AM 70.5 °F - 69.3 °F 96% 29.91 in 4.0 mi Calm Calm - N/A   Clear
5:35 AM 69.1 °F - 68.0 °F 96% 29.91 in 2.0 mi Calm Calm - N/A   Clear
5:55 AM 68.9 °F - 67.6 °F 96% 29.92 in 1.0 mi Calm Calm - N/A   Mist
6:15 AM 68.2 °F - 67.1 °F 96% 29.93 in 2.0 mi West 3.5 mph - N/A   Clear
6:35 AM 68.4 °F - 67.5 °F 97% 29.94 in 1.8 mi Calm Calm - N/A   Mist
6:55 AM 68.2 °F - 67.3 °F 97% 29.94 in 0.8 mi Calm Calm - N/A   Mist
7:15 AM 68.7 °F - 67.8 °F 97% 29.95 in 1.8 mi Calm Calm - N/A   Mist
7:35 AM 70.5 °F - 69.6 °F 97% 29.96 in 4.0 mi WNW 3.5 mph - N/A   Clear
7:55 AM 71.6 °F - 70.7 °F 97% 29.96 in 5.0 mi NNW 3.5 mph - N/A   Clear
8:15 AM 73.4 °F - 71.8 °F 95% 29.97 in 10.0 mi NNW 4.6 mph - N/A   Clear
8:35 AM 75.2 °F - 71.6 °F 89% 29.96 in 10.0 mi NNW 5.8 mph - N/A   Clear
8:55 AM 76.1 °F - 70.9 °F 84% 29.96 in 10.0 mi North 8.1 mph - N/A   Clear
9:15 AM 77.2 °F - 70.2 °F 79% 29.97 in 10.0 mi North 8.1 mph - N/A   Clear
9:35 AM 78.6 °F - 70.0 °F 75% 29.97 in 10.0 mi North 11.5 mph - N/A   Clear
9:55 AM 79.7 °F - 68.9 °F 69% 29.98 in 10.0 mi North 10.4 mph - N/A   Clear
10:15 AM 81.0 °F 83.9 °F 68.7 °F 66% 29.98 in 10.0 mi North 9.2 mph - N/A   Clear
10:35 AM 81.9 °F 84.8 °F 68.2 °F 63% 29.98 in 10.0 mi NNE 10.4 mph - N/A   Clear
10:55 AM 82.6 °F 85.3 °F 67.6 °F 60% 29.99 in 10.0 mi North 9.2 mph - N/A   Clear
11:15 AM 83.5 °F 86.0 °F 66.7 °F 57% 29.99 in 10.0 mi NNW 6.9 mph - N/A   Clear
11:35 AM 84.4 °F 86.3 °F 65.7 °F 53% 29.99 in 10.0 mi North 4.6 mph - N/A   Clear
11:55 AM 84.9 °F 86.6 °F 64.8 °F 51% 29.99 in 10.0 mi Calm Calm - N/A   Clear
12:15 PM 85.8 °F 86.6 °F 63.0 °F 46% 29.98 in 10.0 mi North 3.5 mph - N/A   Clear
12:35 PM 86.4 °F 86.8 °F 62.1 °F 44% 29.97 in 10.0 mi North 6.9 mph - N/A   Clear
12:55 PM 86.7 °F 86.1 °F 59.4 °F 39% 29.97 in 10.0 mi NNW 6.9 mph - N/A   Clear
1:15 PM 87.3 °F 85.7 °F 55.4 °F 34% 29.96 in 10.0 mi Calm Calm - N/A   Clear
1:35 PM 87.8 °F 86.5 °F 56.8 °F 35% 29.96 in 10.0 mi Calm Calm - N/A   Clear
1:55 PM 88.0 °F 86.7 °F 57.0 °F 35% 29.95 in 10.0 mi Calm Calm - N/A   Clear
2:15 PM 88.3 °F 87.1 °F 57.2 °F 35% 29.95 in 10.0 mi Calm Calm - N/A   Clear
2:35 PM 88.7 °F 87.1 °F 56.3 °F 33% 29.94 in 10.0 mi NNE 5.8 mph - N/A   Clear
2:55 PM 88.7 °F 87.1 °F 56.5 °F 33% 29.93 in 10.0 mi NE 4.6 mph - N/A   Clear
3:15 PM 88.9 °F 87.1 °F 55.6 °F 32% 29.93 in 10.0 mi NNE 3.5 mph - N/A   Clear
3:35 PM 89.1 °F 87.5 °F 56.5 °F 33% 29.92 in 10.0 mi North 3.5 mph - N/A   Clear
3:55 PM 89.6 °F 88.6 °F 58.5 °F 35% 29.90 in 10.0 mi NNE 5.8 mph - N/A   Clear
4:15 PM 88.9 °F 87.5 °F 57.4 °F 34% 29.90 in 10.0 mi Calm Calm - N/A   Clear
4:35 PM 89.1 °F 88.0 °F 57.7 °F 35% 29.91 in 10.0 mi Calm Calm - N/A   Clear
4:55 PM 89.6 °F 87.9 °F 56.1 °F 32% 29.92 in 10.0 mi Calm Calm - N/A   Clear
5:15 PM 89.6 °F 88.4 °F 57.9 °F 34% 29.92 in 10.0 mi Calm Calm - N/A   Clear
5:35 PM 89.1 °F 88.2 °F 58.6 °F 36% 29.91 in 10.0 mi Calm Calm - N/A   Clear
5:55 PM 88.5 °F 88.1 °F 59.7 °F 38% 29.90 in 10.0 mi Calm Calm - N/A   Clear
6:15 PM 88.2 °F 87.6 °F 59.5 °F 38% 29.90 in 10.0 mi Calm Calm - N/A   Clear
6:35 PM 87.4 °F 86.7 °F 59.2 °F 38% 29.90 in 10.0 mi Calm Calm - N/A   Clear
6:55 PM 83.3 °F 84.6 °F 64.2 °F 52% 29.90 in 10.0 mi Calm Calm - N/A   Clear
7:15 PM 79.2 °F - 65.3 °F 62% 29.91 in 10.0 mi Calm Calm - N/A   Clear
7:35 PM 78.3 °F - 63.9 °F 61% 29.90 in 10.0 mi Calm Calm - N/A   Clear
7:55 PM 76.1 °F - 64.4 °F 67% 29.90 in 10.0 mi Calm Calm - N/A   Clear
8:15 PM 74.5 °F - 63.7 °F 69% 29.90 in 10.0 mi ENE 3.5 mph - N/A   Clear
8:35 PM 72.7 °F - 64.4 °F 75% 29.90 in 10.0 mi Calm Calm - N/A   Clear
8:55 PM 75.4 °F - 64.9 °F 70% 29.90 in 10.0 mi SSE 5.8 mph - N/A   Clear
9:15 PM 75.7 °F - 67.6 °F 76% 29.90 in 10.0 mi South 6.9 mph - N/A   Clear
9:35 PM 73.6 °F - 67.5 °F 81% 29.90 in 10.0 mi South 6.9 mph - N/A   Clear
9:55 PM 73.0 °F - 67.1 °F 82% 29.90 in 10.0 mi South 3.5 mph - N/A   Clear
10:15 PM 71.6 °F - 66.0 °F 82% 29.91 in 10.0 mi SSW 4.6 mph - N/A   Clear
10:35 PM 70.7 °F - 65.3 °F 83% 29.91 in 10.0 mi SSW 5.8 mph - N/A   Clear
10:55 PM 70.7 °F - 65.5 °F 83% 29.91 in 10.0 mi SSW 6.9 mph - N/A   Clear
11:15 PM 70.7 °F - 65.5 °F 83% 29.90 in 10.0 mi SSW 6.9 mph - N/A   Clear
11:35 PM 70.3 °F - 65.3 °F 84% 29.90 in 10.0 mi SSW 4.6 mph - N/A   Clear
11:55 PM 69.6 °F - 64.6 °F 84% 29.90 in 10.0 mi SW 4.6 mph - N/A   Clear